SWA1418 KPHX-KOMA

Flight info

Callsign SWA1418
Flight time 2h 6m
Altitude 37000
Route MRBIL1 JARPA RSK BRK GRI HOWRY3
Aircraft B738/M-SDE2E3FGHIRWXY/LB1

Departure

Time 2026-04-25 04:12
Airport Phoenix Sky Harbor International Airport (KPHX)

Arrival

Time 2026-04-25 06:18
Airport Eppley Airfield (KOMA)
Time Latitude Longitude Altitude Speed Heading
2026-04-25 03:48 33.43371 -112.00150 1124 ft 0 kts 314°
2026-04-25 04:07 33.43360 -112.00137 1114 ft 4 kts 314°
2026-04-25 04:07 33.43342 -112.00114 1119 ft 4 kts 314°
2026-04-25 04:07 33.43333 -112.00103 1116 ft 0 kts 314°
2026-04-25 04:09 33.43333 -112.00104 1124 ft 1 kts 314°
2026-04-25 04:09 33.43312 -112.00122 1118 ft 9 kts 167°
2026-04-25 04:10 33.43235 -112.00048 1121 ft 17 kts 144°
2026-04-25 04:10 33.43213 -111.99916 1122 ft 17 kts 89°
2026-04-25 04:10 33.43213 -111.99773 1123 ft 19 kts 90°
2026-04-25 04:10 33.43214 -111.99588 1126 ft 26 kts 90°
2026-04-25 04:11 33.43136 -111.99345 1134 ft 13 kts 191°
2026-04-25 04:11 33.43104 -111.99432 1133 ft 14 kts 271°
2026-04-25 04:11 33.43104 -111.99713 1131 ft 70 kts 270°
2026-04-25 04:12 33.43105 -112.00604 1130 ft 141 kts 270°
2026-04-25 04:12 33.43107 -112.01486 1337 ft 164 kts 269°
2026-04-25 04:12 33.43086 -112.02838 2151 ft 170 kts 268°
2026-04-25 04:12 33.43091 -112.04236 3054 ft 172 kts 271°
2026-04-25 04:13 33.43144 -112.05770 3462 ft 200 kts 271°
2026-04-25 04:13 33.43203 -112.07545 3730 ft 224 kts 270°
2026-04-25 04:13 33.43252 -112.09466 4306 ft 236 kts 270°
2026-04-25 04:13 33.43304 -112.11443 5205 ft 238 kts 271°
2026-04-25 04:14 33.43359 -112.13433 6116 ft 241 kts 270°
2026-04-25 04:14 33.43416 -112.15450 6954 ft 244 kts 271°
2026-04-25 04:14 33.43796 -112.17444 7742 ft 252 kts 297°
2026-04-25 04:14 33.44987 -112.19006 8576 ft 262 kts 325°
2026-04-25 04:15 33.46732 -112.19717 9387 ft 272 kts 353°
2026-04-25 04:15 33.48640 -112.19746 10193 ft 277 kts 359°
2026-04-25 04:15 33.50583 -112.19689 10972 ft 281 kts 358°
2026-04-25 04:15 33.52552 -112.19632 11784 ft 285 kts 358°
2026-04-25 04:16 33.54575 -112.19296 12335 ft 306 kts
2026-04-25 04:16 33.56735 -112.18627 12538 ft 335 kts 11°
2026-04-25 04:16 33.59075 -112.17879 12823 ft 358 kts 11°
2026-04-25 04:16 33.61457 -112.16851 13486 ft 374 kts 27°
2026-04-25 04:17 33.63481 -112.14840 14234 ft 383 kts 44°
2026-04-25 04:17 33.65311 -112.12494 15038 ft 388 kts 45°
2026-04-25 04:17 33.67146 -112.10084 15761 ft 394 kts 45°
2026-04-25 04:17 33.69014 -112.07640 16510 ft 400 kts 45°
2026-04-25 04:18 33.70920 -112.05181 17249 ft 405 kts 44°
2026-04-25 04:18 33.72870 -112.02690 17962 ft 413 kts 44°
2026-04-25 04:18 33.74859 -112.00156 18559 ft 420 kts 44°
2026-04-25 04:18 33.76774 -111.97477 19188 ft 425 kts 49°
2026-04-25 04:19 33.78579 -111.94643 19891 ft 429 kts 50°
2026-04-25 04:19 33.80363 -111.91735 20538 ft 435 kts 51°
2026-04-25 04:19 33.82166 -111.88786 21155 ft 440 kts 50°
2026-04-25 04:19 33.84000 -111.85817 21784 ft 444 kts 50°
2026-04-25 04:20 33.85862 -111.82834 22420 ft 449 kts 49°
2026-04-25 04:20 33.87756 -111.79824 23041 ft 453 kts 49°
2026-04-25 04:20 33.89672 -111.76788 23596 ft 458 kts 49°
2026-04-25 04:20 33.91610 -111.73719 24094 ft 462 kts 49°
2026-04-25 04:21 33.93560 -111.70626 24620 ft 465 kts 49°
2026-04-25 04:21 33.95522 -111.67511 25136 ft 468 kts 48°
2026-04-25 04:21 33.97498 -111.64372 25640 ft 472 kts 48°
2026-04-25 04:21 33.99500 -111.61220 26133 ft 474 kts 45°
2026-04-25 04:22 34.01872 -111.58530 26562 ft 465 kts 27°
2026-04-25 04:22 34.04604 -111.56461 27052 ft 465 kts 25°
2026-04-25 04:22 34.07352 -111.54382 27560 ft 469 kts 25°
2026-04-25 04:22 34.10135 -111.52297 28016 ft 474 kts 25°
2026-04-25 04:23 34.12945 -111.50196 28490 ft 476 kts 25°
2026-04-25 04:23 34.15772 -111.48082 29003 ft 479 kts 25°
2026-04-25 04:23 34.18583 -111.45885 29431 ft 485 kts 27°
2026-04-25 04:23 34.21419 -111.43661 29833 ft 487 kts 25°
2026-04-25 04:24 34.24290 -111.41472 30245 ft 489 kts 25°
2026-04-25 04:24 34.27177 -111.39279 30601 ft 491 kts 25°
2026-04-25 04:24 34.30073 -111.37069 30937 ft 494 kts 24°
2026-04-25 04:24 34.32983 -111.34837 31242 ft 497 kts 25°
2026-04-25 04:25 34.35914 -111.32576 31512 ft 501 kts 25°
2026-04-25 04:25 34.38852 -111.30300 31865 ft 502 kts 24°
2026-04-25 04:25 34.41789 -111.28021 32293 ft 501 kts 24°
2026-04-25 04:25 34.44715 -111.25738 32665 ft 501 kts 24°
2026-04-25 04:26 34.47636 -111.23434 32993 ft 500 kts 24°
2026-04-25 04:26 34.50527 -111.21205 33390 ft 500 kts 23°
2026-04-25 04:26 34.53463 -111.18945 33758 ft 501 kts 23°
2026-04-25 04:26 34.56403 -111.16666 34103 ft 501 kts 23°
2026-04-25 04:27 34.59329 -111.14386 34476 ft 499 kts 23°
2026-04-25 04:27 34.62232 -111.12104 35024 ft 495 kts 26°
2026-04-25 04:27 34.64916 -111.09453 35637 ft 499 kts 35°
2026-04-25 04:27 34.67402 -111.06511 36056 ft 500 kts 37°
2026-04-25 04:28 34.69821 -111.03474 36368 ft 501 kts 38°
2026-04-25 04:28 34.72228 -111.00406 36636 ft 502 kts 38°
2026-04-25 04:28 34.74646 -110.97348 36869 ft 502 kts 38°
2026-04-25 04:29 34.79560 -110.91261 36902 ft 503 kts 37°
2026-04-25 04:29 34.84488 -110.85256 36911 ft 500 kts 37°
2026-04-25 04:30 34.89397 -110.79296 36957 ft 497 kts 36°
2026-04-25 04:30 34.94295 -110.73337 37003 ft 498 kts 37°
2026-04-25 04:31 34.99197 -110.67357 36970 ft 499 kts 37°
2026-04-25 04:31 35.04110 -110.61348 36840 ft 501 kts 37°
2026-04-25 04:32 35.09043 -110.55301 36822 ft 503 kts 37°
2026-04-25 04:32 35.13986 -110.49231 36824 ft 505 kts 37°
2026-04-25 04:33 35.18948 -110.43127 36818 ft 507 kts 37°
2026-04-25 04:33 35.23918 -110.37000 36853 ft 508 kts 38°
2026-04-25 04:34 35.28866 -110.30888 36815 ft 509 kts 38°
2026-04-25 04:34 35.33840 -110.24738 36808 ft 507 kts 38°
2026-04-25 04:35 35.38794 -110.18597 36801 ft 506 kts 38°
2026-04-25 04:35 35.43736 -110.12459 36802 ft 505 kts 38°
2026-04-25 04:36 35.48658 -110.06336 36793 ft 503 kts 38°
2026-04-25 04:36 35.53563 -110.00223 36832 ft 502 kts 38°
2026-04-25 04:37 35.58466 -109.94104 36803 ft 502 kts 38°
2026-04-25 04:37 35.63356 -109.87985 36799 ft 502 kts 38°
2026-04-25 04:38 35.68246 -109.81858 36788 ft 502 kts 38°
2026-04-25 04:38 35.73017 -109.75538 36778 ft 508 kts 44°
2026-04-25 04:39 35.77343 -109.68623 36785 ft 511 kts 47°
2026-04-25 04:39 35.81585 -109.61595 36778 ft 511 kts 47°
2026-04-25 04:40 35.85882 -109.54624 36786 ft 511 kts 46°
2026-04-25 04:40 35.90231 -109.47675 36785 ft 512 kts 46°
2026-04-25 04:41 35.94590 -109.40724 36793 ft 513 kts 46°
2026-04-25 04:41 35.98925 -109.33790 36795 ft 514 kts 46°
2026-04-25 04:42 36.03289 -109.26785 36785 ft 514 kts 46°
2026-04-25 04:42 36.07644 -109.19779 36792 ft 514 kts 46°
2026-04-25 04:43 36.11992 -109.12772 36802 ft 514 kts 46°
2026-04-25 04:43 36.16335 -109.05759 36801 ft 513 kts 46°
2026-04-25 04:44 36.20674 -108.98738 36801 ft 514 kts 47°
2026-04-25 04:44 36.25004 -108.91715 36787 ft 513 kts 47°
2026-04-25 04:45 36.29320 -108.84699 36787 ft 511 kts 47°
2026-04-25 04:45 36.33625 -108.77690 36785 ft 510 kts 47°
2026-04-25 04:46 36.37920 -108.70683 36779 ft 510 kts 47°
2026-04-25 04:46 36.42210 -108.63670 36774 ft 510 kts 47°
2026-04-25 04:47 36.46491 -108.56656 36777 ft 510 kts 47°
2026-04-25 04:47 36.50772 -108.49629 36785 ft 511 kts 47°
2026-04-25 04:48 36.55060 -108.42574 36828 ft 512 kts 47°
2026-04-25 04:48 36.59363 -108.35482 36869 ft 514 kts 47°
2026-04-25 04:49 36.63672 -108.28361 36894 ft 515 kts 47°
2026-04-25 04:49 36.67986 -108.21218 36899 ft 516 kts 47°
2026-04-25 04:50 36.72300 -108.14060 36896 ft 517 kts 47°
2026-04-25 04:50 36.76636 -108.06930 36884 ft 515 kts 45°
2026-04-25 04:51 36.81199 -108.00068 36888 ft 513 kts 43°
2026-04-25 04:51 36.85812 -107.93294 36847 ft 512 kts 44°
2026-04-25 04:52 36.90393 -107.86484 36816 ft 518 kts 44°
2026-04-25 04:52 36.95011 -107.79529 36888 ft 521 kts 44°
2026-04-25 04:53 36.99624 -107.72540 36926 ft 522 kts 44°
2026-04-25 04:53 37.04243 -107.65526 36937 ft 522 kts 44°
2026-04-25 04:54 37.08860 -107.58509 36921 ft 521 kts 44°
2026-04-25 04:54 37.13462 -107.51503 36910 ft 520 kts 44°
2026-04-25 04:55 37.18055 -107.44495 36877 ft 520 kts 45°
2026-04-25 04:55 37.22635 -107.37487 36849 ft 519 kts 44°
2026-04-25 04:56 37.27215 -107.30495 36920 ft 519 kts 44°
2026-04-25 04:56 37.31770 -107.23497 36973 ft 515 kts 45°
2026-04-25 04:57 37.36295 -107.16523 36973 ft 514 kts 45°
2026-04-25 04:57 37.40807 -107.09562 37011 ft 513 kts 45°
2026-04-25 04:58 37.45317 -107.02612 36969 ft 511 kts 44°
2026-04-25 04:58 37.49815 -106.95698 36926 ft 510 kts 45°
2026-04-25 04:59 37.53517 -106.89929 36904 ft 509 kts 45°
2026-04-25 04:59 37.57965 -106.82992 36868 ft 508 kts 45°
2026-04-25 05:00 37.62406 -106.76058 36852 ft 508 kts 45°
2026-04-25 05:00 37.66854 -106.69108 36899 ft 511 kts 45°
2026-04-25 05:01 37.71315 -106.62122 36947 ft 510 kts 45°
2026-04-25 05:01 37.75758 -106.55131 36932 ft 508 kts 45°
2026-04-25 05:02 37.80197 -106.48191 36961 ft 509 kts 45°
2026-04-25 05:02 37.84641 -106.41215 36959 ft 510 kts 46°
2026-04-25 05:03 37.89090 -106.34203 36933 ft 513 kts 46°
2026-04-25 05:03 37.93544 -106.27155 36893 ft 512 kts 46°
2026-04-25 05:04 37.97990 -106.20102 36783 ft 511 kts 46°
2026-04-25 05:04 38.02404 -106.13088 36783 ft 504 kts 46°
2026-04-25 05:05 38.06748 -106.06174 36788 ft 501 kts 46°
2026-04-25 05:05 38.11094 -105.99251 36800 ft 502 kts 46°
2026-04-25 05:06 38.15449 -105.92297 36789 ft 503 kts 46°
2026-04-25 05:06 38.19805 -105.85322 36789 ft 504 kts 46°
2026-04-25 05:07 38.24129 -105.78379 36780 ft 504 kts 46°
2026-04-25 05:07 38.28462 -105.71413 36774 ft 501 kts 46°
2026-04-25 05:08 38.32783 -105.64450 36785 ft 502 kts 47°
2026-04-25 05:08 38.37116 -105.57453 36773 ft 503 kts 47°
2026-04-25 05:09 38.41449 -105.50437 36775 ft 504 kts 47°
2026-04-25 05:09 38.45780 -105.43409 36764 ft 504 kts 47°
2026-04-25 05:10 38.50104 -105.36379 36762 ft 503 kts 47°
2026-04-25 05:10 38.54422 -105.29346 36755 ft 503 kts 47°
2026-04-25 05:11 38.58732 -105.22317 36800 ft 502 kts 47°
2026-04-25 05:11 38.63036 -105.15274 36743 ft 502 kts 47°
2026-04-25 05:12 38.69450 -105.04740 36723 ft 498 kts 47°
2026-04-25 05:12 38.73693 -104.97764 36787 ft 495 kts 47°
2026-04-25 05:13 38.77876 -104.90864 36808 ft 493 kts 48°
2026-04-25 05:13 38.82105 -104.83863 36906 ft 499 kts 48°
2026-04-25 05:14 38.86386 -104.76784 36942 ft 503 kts 48°
2026-04-25 05:15 38.92828 -104.66088 36944 ft 506 kts 48°
2026-04-25 05:15 38.96487 -104.58324 36954 ft 512 kts 62°
2026-04-25 05:16 38.99420 -104.49982 36937 ft 511 kts 64°
2026-04-25 05:16 39.02320 -104.41601 36911 ft 515 kts 63°
2026-04-25 05:17 39.05288 -104.33177 36848 ft 518 kts 63°
2026-04-25 05:17 39.08294 -104.24725 36795 ft 520 kts 63°
2026-04-25 05:18 39.11304 -104.16258 36737 ft 520 kts 63°
2026-04-25 05:18 39.14299 -104.07801 36739 ft 518 kts 63°
2026-04-25 05:19 39.17275 -103.99367 36774 ft 516 kts 63°
2026-04-25 05:19 39.20230 -103.90966 36827 ft 514 kts 63°
2026-04-25 05:20 39.23169 -103.82588 36846 ft 512 kts 62°
2026-04-25 05:20 39.26089 -103.74241 36864 ft 509 kts 63°
2026-04-25 05:21 39.28974 -103.65970 36868 ft 508 kts 63°
2026-04-25 05:21 39.31863 -103.57665 36870 ft 507 kts 63°
2026-04-25 05:22 39.34747 -103.49350 36819 ft 507 kts 63°
2026-04-25 05:22 39.37641 -103.40979 36709 ft 507 kts 63°
2026-04-25 05:23 39.40512 -103.32655 36690 ft 507 kts 63°
2026-04-25 05:23 39.43378 -103.24318 36693 ft 507 kts 63°
2026-04-25 05:24 39.46239 -103.15972 36710 ft 508 kts 63°
2026-04-25 05:24 39.49097 -103.07612 36712 ft 508 kts 63°
2026-04-25 05:25 39.51929 -102.99302 36695 ft 508 kts 63°
2026-04-25 05:25 39.54775 -102.90925 36699 ft 508 kts 63°
2026-04-25 05:26 39.57616 -102.82541 36695 ft 508 kts 63°
2026-04-25 05:26 39.60448 -102.74158 36701 ft 508 kts 63°
2026-04-25 05:27 39.63273 -102.65772 36709 ft 507 kts 63°
2026-04-25 05:27 39.66088 -102.57390 36698 ft 507 kts 64°
2026-04-25 05:28 39.68897 -102.49001 36702 ft 507 kts 64°
2026-04-25 05:28 39.71699 -102.40608 36690 ft 506 kts 64°
2026-04-25 05:29 39.74494 -102.32213 36700 ft 506 kts 64°
2026-04-25 05:29 39.77280 -102.23816 36695 ft 506 kts 64°
2026-04-25 05:30 39.80060 -102.15416 36704 ft 506 kts 64°
2026-04-25 05:30 39.82830 -102.07018 36715 ft 505 kts 64°
2026-04-25 05:31 39.85594 -101.98615 36758 ft 505 kts 64°
2026-04-25 05:31 39.88357 -101.90191 36732 ft 506 kts 64°
2026-04-25 05:32 39.91114 -101.81757 36724 ft 506 kts 64°
2026-04-25 05:32 39.93866 -101.73314 36722 ft 507 kts 64°
2026-04-25 05:33 39.96614 -101.64859 36706 ft 505 kts 65°
2026-04-25 05:33 39.99330 -101.56470 36716 ft 500 kts 65°
2026-04-25 05:34 40.02028 -101.48118 36717 ft 499 kts 65°
2026-04-25 05:34 40.04717 -101.39770 36723 ft 499 kts 65°
2026-04-25 05:35 40.07381 -101.31475 36724 ft 499 kts 65°
2026-04-25 05:35 40.10074 -101.23063 36726 ft 499 kts 66°
2026-04-25 05:36 40.12725 -101.14754 36736 ft 499 kts 66°
2026-04-25 05:36 40.15388 -101.06385 36733 ft 499 kts 66°
2026-04-25 05:37 40.18042 -100.98018 36747 ft 499 kts 66°
2026-04-25 05:37 40.20693 -100.89634 36750 ft 498 kts 66°
2026-04-25 05:38 40.23336 -100.81252 36756 ft 498 kts 66°
2026-04-25 05:38 40.25974 -100.72857 36761 ft 498 kts 66°
2026-04-25 05:39 40.28607 -100.64455 36755 ft 499 kts 66°
2026-04-25 05:39 40.31234 -100.56046 36757 ft 499 kts 66°
2026-04-25 05:40 40.33844 -100.47662 36750 ft 495 kts 66°
2026-04-25 05:40 40.36431 -100.39329 36767 ft 492 kts 66°
2026-04-25 05:41 40.38999 -100.31032 36768 ft 490 kts 66°
2026-04-25 05:41 40.41557 -100.22740 36772 ft 490 kts 66°
2026-04-25 05:42 40.44117 -100.14419 36777 ft 492 kts 66°
2026-04-25 05:42 40.46680 -100.06062 36780 ft 495 kts 66°
2026-04-25 05:43 40.49251 -99.97651 36795 ft 498 kts 66°
2026-04-25 05:43 40.51830 -99.89187 36799 ft 500 kts 66°
2026-04-25 05:44 40.54416 -99.80673 36818 ft 503 kts 66°
2026-04-25 05:44 40.57010 -99.72107 36817 ft 506 kts 66°
2026-04-25 05:45 40.59613 -99.63483 36823 ft 508 kts 66°
2026-04-25 05:45 40.62219 -99.54817 36831 ft 510 kts 66°
2026-04-25 05:46 40.64388 -99.47586 36836 ft 511 kts 67°
2026-04-25 05:46 40.66995 -99.38866 36829 ft 512 kts 66°
2026-04-25 05:47 40.69600 -99.30126 36870 ft 512 kts 66°
2026-04-25 05:47 40.72189 -99.21407 36804 ft 510 kts 66°
2026-04-25 05:47 40.73474 -99.17070 36443 ft 505 kts 66°
2026-04-25 05:48 40.74737 -99.12796 36081 ft 497 kts 66°
2026-04-25 05:48 40.75984 -99.08568 35668 ft 492 kts 66°
2026-04-25 05:48 40.77214 -99.04395 35284 ft 486 kts 66°
2026-04-25 05:48 40.78433 -99.00255 34894 ft 481 kts 65°
2026-04-25 05:49 40.79636 -98.96161 34494 ft 477 kts 65°
2026-04-25 05:49 40.80833 -98.92084 33996 ft 476 kts 64°
2026-04-25 05:49 40.82022 -98.88026 33535 ft 472 kts 64°
2026-04-25 05:49 40.83201 -98.83998 33097 ft 468 kts 64°
2026-04-25 05:50 40.84365 -98.80013 32705 ft 463 kts 64°
2026-04-25 05:50 40.85516 -98.76067 32338 ft 458 kts 65°
2026-04-25 05:50 40.86652 -98.72166 31954 ft 453 kts 65°
2026-04-25 05:50 40.87775 -98.68302 31591 ft 447 kts 65°
2026-04-25 05:51 40.88868 -98.64537 31234 ft 443 kts 65°
2026-04-25 05:51 40.89966 -98.60752 30882 ft 439 kts 65°
2026-04-25 05:51 40.91053 -98.56999 30520 ft 435 kts 65°
2026-04-25 05:51 40.92128 -98.53282 30164 ft 432 kts 65°
2026-04-25 05:52 40.93196 -98.49586 29778 ft 428 kts 65°
2026-04-25 05:52 40.94253 -98.45919 29377 ft 425 kts 65°
2026-04-25 05:52 40.95298 -98.42290 29023 ft 420 kts 65°
2026-04-25 05:52 40.96331 -98.38700 28641 ft 416 kts 66°
2026-04-25 05:53 40.97353 -98.35143 28280 ft 411 kts 66°
2026-04-25 05:53 40.98362 -98.31625 27923 ft 407 kts 67°
2026-04-25 05:53 40.99334 -98.28137 27641 ft 402 kts 68°
2026-04-25 05:53 41.00280 -98.24638 27390 ft 407 kts 68°
2026-04-25 05:54 41.01236 -98.21063 27140 ft 415 kts 69°
2026-04-25 05:54 41.02197 -98.17452 26885 ft 417 kts 69°
2026-04-25 05:54 41.04106 -98.10280 26342 ft 408 kts 69°
2026-04-25 05:55 41.05045 -98.06757 25984 ft 404 kts 69°
2026-04-25 05:55 41.05974 -98.03268 25621 ft 400 kts 69°
2026-04-25 05:55 41.06899 -97.99799 25259 ft 397 kts 69°
2026-04-25 05:55 41.07815 -97.96362 24910 ft 395 kts 70°
2026-04-25 05:56 41.08723 -97.92946 24553 ft 392 kts 70°
2026-04-25 05:56 41.09625 -97.89549 24195 ft 389 kts 71°
2026-04-25 05:56 41.10519 -97.86177 23827 ft 387 kts 71°
2026-04-25 05:56 41.11409 -97.82815 23456 ft 385 kts 71°
2026-04-25 05:57 41.12293 -97.79472 23042 ft 383 kts 71°
2026-04-25 05:57 41.13169 -97.76154 22654 ft 380 kts 71°
2026-04-25 05:57 41.14037 -97.72861 22284 ft 377 kts 71°
2026-04-25 05:57 41.14898 -97.69593 21923 ft 374 kts 71°
2026-04-25 05:58 41.15751 -97.66350 21573 ft 371 kts 71°
2026-04-25 05:58 41.16597 -97.63130 21219 ft 368 kts 71°
2026-04-25 05:58 41.17435 -97.59935 20885 ft 365 kts 71°
2026-04-25 05:58 41.18266 -97.56761 20544 ft 363 kts 72°
2026-04-25 05:59 41.19092 -97.53606 20214 ft 360 kts 72°
2026-04-25 05:59 41.19911 -97.50472 19879 ft 358 kts 72°
2026-04-25 05:59 41.20725 -97.47353 19554 ft 356 kts 72°
2026-04-25 05:59 41.21533 -97.44252 19220 ft 355 kts 72°
2026-04-25 06:00 41.22326 -97.41202 18889 ft 353 kts 72°
2026-04-25 06:00 41.23138 -97.38080 18549 ft 352 kts 72°
2026-04-25 06:00 41.23935 -97.35009 18199 ft 351 kts 72°
2026-04-25 06:00 41.24718 -97.31987 17836 ft 350 kts 72°
2026-04-25 06:01 41.25518 -97.28899 17491 ft 348 kts 72°
2026-04-25 06:01 41.26289 -97.25920 17191 ft 344 kts 72°
2026-04-25 06:01 41.27064 -97.22919 16863 ft 342 kts 72°
2026-04-25 06:01 41.27832 -97.19941 16541 ft 340 kts 72°
2026-04-25 06:02 41.28595 -97.16979 16214 ft 337 kts 72°
2026-04-25 06:02 41.29351 -97.14041 15897 ft 335 kts 72°
2026-04-25 06:02 41.30104 -97.11114 15573 ft 333 kts 72°
2026-04-25 06:02 41.30850 -97.08206 15268 ft 331 kts 72°
2026-04-25 06:03 41.31592 -97.05313 14957 ft 330 kts 72°
2026-04-25 06:03 41.32330 -97.02431 14642 ft 328 kts 72°
2026-04-25 06:03 41.33064 -96.99562 14342 ft 327 kts 72°
2026-04-25 06:03 41.33793 -96.96709 14024 ft 325 kts 72°
2026-04-25 06:04 41.34517 -96.93874 13702 ft 323 kts 72°
2026-04-25 06:04 41.35236 -96.91055 13362 ft 321 kts 72°
2026-04-25 06:04 41.35950 -96.88250 13049 ft 319 kts 72°
2026-04-25 06:04 41.36453 -96.85403 12716 ft 314 kts 89°
2026-04-25 06:05 41.36277 -96.82574 12589 ft 302 kts 104°
2026-04-25 06:05 41.35824 -96.79841 12306 ft 304 kts 106°
2026-04-25 06:05 41.35321 -96.77089 12021 ft 310 kts 106°
2026-04-25 06:05 41.34799 -96.74270 11718 ft 317 kts 106°
2026-04-25 06:06 41.34276 -96.71406 11402 ft 318 kts 106°
2026-04-25 06:06 41.33763 -96.68554 11079 ft 316 kts 106°
2026-04-25 06:06 41.33259 -96.65721 10760 ft 313 kts 106°
2026-04-25 06:06 41.32761 -96.62910 10442 ft 311 kts 106°
2026-04-25 06:07 41.32271 -96.60129 10239 ft 305 kts 106°
2026-04-25 06:07 41.31796 -96.57430 10112 ft 297 kts 106°
2026-04-25 06:07 41.31329 -96.54780 9903 ft 292 kts 106°
2026-04-25 06:07 41.30865 -96.52156 9614 ft 290 kts 106°
2026-04-25 06:08 41.30405 -96.49554 9322 ft 288 kts 106°
2026-04-25 06:08 41.29947 -96.46968 9033 ft 286 kts 106°
2026-04-25 06:08 41.29493 -96.44409 8746 ft 283 kts 106°
2026-04-25 06:08 41.29049 -96.41904 8480 ft 281 kts 107°
2026-04-25 06:09 41.28602 -96.39391 8203 ft 278 kts 107°
2026-04-25 06:09 41.28159 -96.36897 7939 ft 276 kts 107°
2026-04-25 06:09 41.27720 -96.34431 7666 ft 273 kts 107°
2026-04-25 06:09 41.27284 -96.31983 7400 ft 271 kts 107°
2026-04-25 06:10 41.26851 -96.29561 7134 ft 269 kts 107°
2026-04-25 06:10 41.26424 -96.27153 6866 ft 267 kts 105°
2026-04-25 06:10 41.26454 -96.24687 6594 ft 273 kts 77°
2026-04-25 06:10 41.27330 -96.22449 6350 ft 277 kts 54°
2026-04-25 06:11 41.28753 -96.20721 6080 ft 278 kts 40°
2026-04-25 06:11 41.30306 -96.19201 5799 ft 276 kts 39°
2026-04-25 06:11 41.31853 -96.17715 5536 ft 270 kts 39°
2026-04-25 06:11 41.33343 -96.16278 5285 ft 260 kts 39°
2026-04-25 06:12 41.34776 -96.14884 5045 ft 251 kts 40°
2026-04-25 06:12 41.36154 -96.13533 4818 ft 242 kts 40°
2026-04-25 06:12 41.37470 -96.12238 4656 ft 227 kts 41°
2026-04-25 06:12 41.38689 -96.11036 4531 ft 211 kts 41°
2026-04-25 06:13 41.39834 -96.09903 4439 ft 202 kts 41°
2026-04-25 06:13 41.40963 -96.08782 4391 ft 202 kts 40°
2026-04-25 06:13 41.42088 -96.07666 4293 ft 201 kts 40°
2026-04-25 06:14 41.43708 -96.04939 4056 ft 187 kts 84°
2026-04-25 06:14 41.43666 -96.03430 3888 ft 185 kts 108°
2026-04-25 06:14 41.43065 -96.01852 3710 ft 193 kts 132°
2026-04-25 06:14 41.42047 -96.00748 3495 ft 186 kts 145°
2026-04-25 06:15 41.41000 -95.99749 3282 ft 183 kts 145°
2026-04-25 06:15 41.39998 -95.98806 3101 ft 168 kts 145°
2026-04-25 06:15 41.39070 -95.97931 2903 ft 159 kts 145°
2026-04-25 06:15 41.38171 -95.97077 2700 ft 159 kts 145°
2026-04-25 06:16 41.37279 -95.96227 2457 ft 152 kts 144°
2026-04-25 06:16 41.36461 -95.95445 2292 ft 140 kts 144°
2026-04-25 06:16 41.35688 -95.94710 2110 ft 141 kts 144°
2026-04-25 06:16 41.34886 -95.93955 1873 ft 143 kts 144°
2026-04-25 06:17 41.34051 -95.93155 1699 ft 151 kts 144°
2026-04-25 06:17 41.33180 -95.92321 1466 ft 154 kts 143°
2026-04-25 06:17 41.32315 -95.91498 1265 ft 155 kts 144°
2026-04-25 06:17 41.31437 -95.90661 1049 ft 155 kts 143°
2026-04-25 06:18 41.30603 -95.89865 986 ft 132 kts 144°
2026-04-25 06:18 41.30033 -95.89324 983 ft 70 kts 144°
2026-04-25 06:18 41.29801 -95.89104 991 ft 26 kts 150°
2026-04-25 06:18 41.29694 -95.89205 984 ft 20 kts 232°
2026-04-25 06:19 41.29635 -95.89368 987 ft 20 kts 271°
2026-04-25 06:19 41.29636 -95.89547 984 ft 19 kts 270°
2026-04-25 06:19 41.29725 -95.89608 987 ft 16 kts 360°
2026-04-25 06:19 41.29854 -95.89607 987 ft 22 kts
2026-04-25 06:20 41.30012 -95.89606 988 ft 23 kts
2026-04-25 06:20 41.30146 -95.89614 988 ft 13 kts 342°
2026-04-25 06:20 41.30198 -95.89662 991 ft 13 kts 324°
2026-04-25 06:20 41.30295 -95.89755 987 ft 18 kts 320°
2026-04-25 06:21 41.30272 -95.89836 990 ft 13 kts 169°
2026-04-25 06:21 41.30203 -95.89764 984 ft 11 kts 144°
2026-04-25 06:21 41.30170 -95.89732 986 ft 1 kts 144°
2026-04-25 06:21 41.30157 -95.89730 988 ft 5 kts 193°
2026-04-25 06:22 41.30140 -95.89766 991 ft 2 kts 250°
2026-04-25 06:22 41.30135 -95.89782 985 ft 2 kts 250°
2026-04-25 06:22 41.30133 -95.89789 986 ft 0 kts 250°